Location: Cheching
(60.0667°N, 164.2167°W)
Time: 14:08:48
(UTC+00:00)

NOAA 19 - Pass Details

Date: 22 January 2021
Orbit: 840 x 862 km, 99.2° (Epoch: 01 March)

Event Time Altitude Azimuth Distance (km) Brightness Sun altitude
Rises 04:57:57 0° 177° (S) 3,430 8.5 -15.6°
Reaches altitude 10° 05:00:24 10° 183° (S) 2,496 7.8 -15.9°
Maximum altitude 05:05:47 51° 259° (W) 1,074 6.2 -16.6°
Drops below altitude 10° 05:11:12 10° 335° (NNW) 2,500 7.8 -17.3°
Sets 05:13:39 0° 341° (NNW) 3,437 8.5 -17.6°
